Flag for Germany Weather past 2 weeks in Wittmund, Lower Saxony, Germany

Now
72 °F

Mild.


Feels Like: 72 °F
Forecast: 62 / 76 °F
Wind: 10 mph from Northwest

Location: Wittmundhaven

Current Time: Jul 4, 2015 at 11:26:19 PM

Latest Report: Jul 4, 2015 at 10:20 PM


Visibility: 4 mi

Pressure: 30.09 "Hg

Humidity: 78%

Dew point: 64 °F

Location of WittmundLocation

Historic Weather in Wittmund — Graph

°F

Wittmund temperature yesterday

Maximum temperature yesterday: 79 °F (at 12:20 PM)
Minimum temperature yesterday: 66 °F (at 3:20 AM)
Average temperature yesterday: 71 °F

Past Weeks' High & Low Weather Summary

 TemperatureHumidityPressure
High95 °F (Jul 4, 4:20 PM)100% (Jun 28, 3:20 AM)30.27 "Hg (Jun 28, 3:20 AM)
Low46 °F (Jun 21, 12:20 AM)33% (Jul 1, 4:20 PM)29.65 "Hg (Jun 22, 7:20 PM)
Average63 °F75%30.06 "Hg
* Reported Jun 19 9:20 PM — Jul 4 9:20 PM, Wittmund, Weather by CustomWeather, © 2015

Note: Actual official high and low records may vary slightly from our data, if they occured in-between our weather recording intervals... More about our weather records

Advertising

Wittmund weather history for previous 24 hours

 ConditionsComfort  
Time TempWeatherWind HumidityBarometerVisibility
9:20 PM
Sat, Jul 4
75 °FMild.10 mph78%30.09 "Hg4 mi
8:20 PM81 °FWarm.9 mph66%30.07 "Hg5 mi
7:20 PM86 °FWarm.17 mph59%30.04 "Hg6 mi
6:20 PM88 °FWarm.20 mph59%30.04 "Hg6 mi
5:20 PM91 °FHot.15 mph52%30.04 "Hg6 mi
4:20 PM95 °FExtremely hot.8 mph41%30.04 "HgN/A
3:20 PM90 °FHot.9 mph52%30.04 "Hg6 mi
2:20 PM88 °FWarm.12 mph55%30.04 "Hg6 mi
1:20 PM86 °FWarm.10 mph59%30.07 "Hg6 mi
12:20 PM84 °FWarm.9 mph58%30.07 "Hg5 mi
11:20 AM82 °FWarm.10 mph55%30.07 "Hg4 mi
10:20 AM79 °FWarm.13 mph61%30.09 "Hg4 mi
9:20 AM75 °FMild.12 mph69%30.09 "Hg4 mi
8:20 AM73 °FMild.10 mph69%30.12 "Hg5 mi
7:20 AM72 °FMild.7 mph78%30.12 "Hg4 mi
6:20 AM66 °FMild.5 mph94%30.12 "Hg2 mi
5:20 AM64 °FMild.3 mph94%30.15 "Hg1 mi
4:20 AM64 °FMild.6 mph94%30.15 "Hg2 mi
3:20 AM64 °FMild.7 mph88%30.18 "Hg3 mi
2:20 AM63 °FMild.5 mph94%30.21 "Hg4 mi
1:20 AM64 °FMild.7 mph88%30.21 "Hg4 mi
12:20 AM64 °FMild.7 mph94%30.24 "Hg4 mi
11:20 PM
Fri, Jul 3
66 °FMild.5 mph88%30.24 "Hg5 mi
Weather by CustomWeather, © 2015

See weather overviewHow to use our weather pages